FW4443 Weather Reports


Display with metric or nautical units.
time (UTC)temp
F
wind
direction
speed
MPH
gust
MPH
rain 1hr
in
rain 24hr
in
rain mn
in
humidity
%
barometer
mb
20240304093145 47 247 1.0 6.0 0.00 0.00 0.00 48 1009.6
20240304092821 47 225 1.0 6.0 0.00 0.00 0.00 48 1009.7
20240304092506 47 242 2.0 7.0 0.00 0.00 0.00 48 1009.6
20240304092142 48 219 2.0 7.0 0.00 0.00 0.00 48 1009.5
20240304091825 48 178 2.0 7.0 0.00 0.00 0.00 48 1009.4
20240304091500 48 192 2.0 8.0 0.00 0.00 0.00 48 1009.5
20240304091142 48 144 2.0 8.0 0.00 0.00 0.00 48 1009.4
20240304090520 48 167 2.0 8.0 0.00 0.00 0.00 47 1009.3
20240304090200 48 166 3.0 8.0 0.00 0.00 0.00 47 1009.3
20240304085837 48 165 2.0 8.0 0.00 0.00 0.00 47 1009.3
20240304085519 49 164 2.0 6.0 0.00 0.00 0.00 47 1009.3
20240304085204 49 152 1.0 6.0 0.00 0.00 0.00 47 1009.3
20240304084850 49 184 2.0 10.0 0.00 0.00 0.00 46 1009.2
20240304083932 49 163 4.0 10.0 0.00 0.00 0.00 46 1009.2
20240304083615 49 225 4.0 10.0 0.00 0.00 0.00 46 1009.1
20240304083259 49 198 3.0 10.0 0.00 0.00 0.00 46 1009.2
20240304082945 49 225 3.0 10.0 0.00 0.00 0.00 46 1009.1
20240304082631 49 211 3.0 10.0 0.00 0.00 0.00 45 1009.2
20240304082010 48 226 3.0 9.0 0.00 0.00 0.00 45 1009.1
20240304081649 49 226 2.0 9.0 0.00 0.00 0.00 45 1009.1
20240304081325 49 224 1.0 6.0 0.00 0.00 0.00 45 1009.1
20240304081002 49 250 1.0 6.0 0.00 0.00 0.00 45 1009.1
20240304080339 49 234 2.0 6.0 0.00 0.00 0.00 45 1009.1
20240304080020 49 246 2.0 6.0 0.00 0.00 0.00 45 1008.9
20240304075655 49 226 2.0 5.0 0.00 0.00 0.00 45 1008.8
20240304075038 49 206 1.0 4.0 0.00 0.00 0.00 44 1008.8
20240304074414 50 191 0.0 3.0 0.00 0.00 0.00 44 1008.9
20240304074051 50 163 0.0 3.0 0.00 0.00 0.00 43 1008.8
20240304073427 50 185 1.0 0.0 0.00 0.00 0.00 43 1008.7
20240304073105 50 185 4.0 12.0 0.00 0.00 0.00 43 1008.6
20240304072751 50 232 4.0 12.0 0.00 0.00 0.00 43 1008.6
20240304072434 50 228 4.0 12.0 0.00 0.00 0.00 43 1008.5
20240304072116 50 236 3.0 9.0 0.00 0.00 0.00 43 1008.6
20240304071800 50 177 2.0 10.0 0.00 0.00 0.00 44 1008.6
20240304071135 50 233 3.0 10.0 0.00 0.00 0.00 44 1008.5
20240304070810 50 188 3.0 10.0 0.00 0.00 0.00 44 1008.4
20240304070153 50 213 2.0 10.0 0.00 0.00 0.00 43 1008.3
20240304065831 50 199 2.0 8.0 0.00 0.00 0.00 43 1008.3
20240304065514 50 214 2.0 6.0 0.00 0.00 0.00 42 1008.2
20240304065156 50 244 2.0 6.0 0.00 0.00 0.00 42 1008.3
20240304064841 50 226 3.0 6.0 0.00 0.00 0.00 42 1008.2
20240304064517 51 215 2.0 10.0 0.00 0.00 0.00 42 1008.2
20240304064156 51 185 1.0 10.0 0.00 0.00 0.00 42 1008.3
20240304063838 51 174 2.0 10.0 0.00 0.00 0.00 42 1008.3
20240304063521 51 202 3.0 10.0 0.00 0.00 0.00 42 1008.2
20240304063207 51 194 4.0 10.0 0.00 0.00 0.00 42 1008.2
20240304062853 51 205 4.0 10.0 0.00 0.00 0.00 42 1008.2
20240304062539 51 193 3.0 9.0 0.00 0.00 0.00 42 1008.2
20240304062224 51 205 2.0 8.0 0.00 0.00 0.00 42 1008.3
20240304061901 51 172 2.0 8.0 0.00 0.00 0.00 42 1008.2
20240304061541 51 158 2.0 5.0 0.00 0.00 0.00 41 1008.3
20240304061220 51 169 2.0 10.0 0.00 0.00 0.00 41 1008.3
20240304060902 51 164 2.0 10.0 0.00 0.00 0.00 41 1008.3
20240304060540 51 158 3.0 10.0 0.00 0.00 0.00 41 1008.3
20240304060223 51 150 3.0 10.0 0.00 0.00 0.00 41 1008.3
20240304055906 51 173 4.0 10.0 0.00 0.00 0.00 41 1008.1
20240304055543 51 192 4.0 10.0 0.00 0.00 0.00 40 1008.2
20240304055227 51 207 4.0 8.0 0.00 0.00 0.00 41 1008.1
20240304054303 51 178 3.0 7.0 0.00 0.00 0.00 40 1008.1
20240304053943 52 198 3.0 7.0 0.00 0.00 0.00 40 1008.1
20240304053625 52 174 3.0 6.0 0.00 0.00 0.00 40 1008.2
20240304053003 52 180 2.0 6.0 0.00 0.00 0.00 40 1008.2
20240304052644 52 171 2.0 5.0 0.00 0.00 0.00 39 1008.1
20240304052326 52 173 2.0 5.0 0.00 0.00 0.00 39 1008.2
20240304052007 53 170 1.0 5.0 0.00 0.00 0.00 39 1008.1
20240304051643 53 180 2.0 5.0 0.00 0.00 0.00 38 1008.1
20240304051318 53 190 2.0 6.0 0.00 0.00 0.00 38 1008.0
20240304050952 53 197 2.0 6.0 0.00 0.00 0.00 38 1008.1
20240304050634 53 208 2.0 6.0 0.00 0.00 0.00 38 1008.1
20240304050320 53 171 2.0 10.0 0.00 0.00 0.00 38 1008.1
20240304050002 53 173 2.0 10.0 0.00 0.00 0.00 38 1008.0
20240304045644 54 185 3.0 10.0 0.00 0.00 0.00 37 1008.0
20240304045023 54 198 4.0 10.0 0.00 0.00 0.00 37 1007.8
20240304044703 54 190 4.0 10.0 0.00 0.00 0.00 37 1007.8
20240304044338 54 209 5.0 9.0 0.00 0.00 0.00 37 1007.7
20240304044017 54 236 6.0 11.0 0.00 0.00 0.00 37 1007.7
20240304043659 54 178 5.0 11.0 0.00 0.00 0.00 37 1007.7
20240304043335 54 207 6.0 11.0 0.00 0.00 0.00 37 1007.7
20240304043012 54 217 5.0 11.0 0.00 0.00 0.00 38 1007.7
20240304042652 54 213 5.0 11.0 0.00 0.00 0.00 38 1007.6
20240304042038 55 216 5.0 12.0 0.00 0.00 0.00 38 1007.5
20240304041723 55 234 5.0 12.0 0.00 0.00 0.00 38 1007.5
20240304041403 55 221 6.0 12.0 0.00 0.00 0.00 38 1007.4
20240304041043 55 195 6.0 13.0 0.00 0.00 0.00 38 1007.4
20240304040718 55 250 6.0 13.0 0.00 0.00 0.00 38 1007.4
20240304040400 55 233 6.0 13.0 0.00 0.00 0.00 38 1007.4
20240304040039 55 210 7.0 17.0 0.00 0.00 0.00 38 1007.4
20240304035720 55 246 7.0 17.0 0.00 0.00 0.00 38 1007.3
20240304035358 55 245 7.0 17.0 0.00 0.00 0.00 38 1007.2
20240304035038 55 229 9.0 17.0 0.00 0.00 0.00 38 1007.3
20240304034712 55 221 8.0 17.0 0.00 0.00 0.00 38 1007.2
20240304034346 55 197 9.0 17.0 0.00 0.00 0.00 38 1007.3
20240304034023 56 251 8.0 15.0 0.00 0.00 0.00 38 1007.1
20240304033701 56 236 8.0 15.0 0.00 0.00 0.00 39 1007.1
20240304033343 56 216 7.0 15.0 0.00 0.00 0.00 38 1007.1
20240304033019 56 248 5.0 14.0 0.00 0.00 0.00 38 1007.0
20240304032703 56 242 4.0 14.0 0.00 0.00 0.00 38 1007.0
20240304032348 56 255 4.0 14.0 0.00 0.00 0.00 38 1006.9
20240304032026 56 184 4.0 14.0 0.00 0.00 0.00 38 1007.0
20240304031708 56 213 6.0 14.0 0.00 0.00 0.00 38 1007.0
20240304031354 56 237 7.0 14.0 0.00 0.00 0.00 38 1006.9
20240304031039 56 236 6.0 13.0 0.00 0.00 0.00 38 1006.8
20240304030725 56 226 5.0 13.0 0.00 0.00 0.00 38 1006.8
20240304030400 56 235 3.0 8.0 0.00 0.00 0.00 38 1006.8
20240304030040 56 249 3.0 8.0 0.00 0.00 0.00 38 1006.7
20240304025723 56 240 3.0 8.0 0.00 0.00 0.00 37 1006.7
20240304025359 56 246 3.0 8.0 0.00 0.00 0.00 37 1006.7
20240304025042 56 198 3.0 7.0 0.00 0.00 0.00 37 1006.7
20240304024727 57 239 3.0 7.0 0.00 0.00 0.00 37 1006.7
20240304024403 57 244 4.0 11.0 0.00 0.00 0.00 36 1006.7
20240304024040 57 242 4.0 11.0 0.00 0.00 0.00 36 1006.6
20240304023723 57 215 6.0 11.0 0.00 0.00 0.00 36 1006.7
20240304023104 57 216 6.0 11.0 0.00 0.00 0.00 36 1006.6
20240304022444 57 225 6.0 16.0 0.00 0.00 0.00 35 1006.6
20240304022127 57 169 7.0 16.0 0.00 0.00 0.00 35 1006.6
20240304021803 57 207 7.0 16.0 0.00 0.00 0.00 35 1006.5
20240304021146 58 209 6.0 18.0 0.00 0.00 0.00 35 1006.3
20240304020821 58 193 8.0 18.0 0.00 0.00 0.00 35 1006.2
20240304020158 58 223 9.0 18.0 0.00 0.00 0.00 34 1006.3
20240304015836 58 252 9.0 18.0 0.00 0.00 0.00 34 1006.2
20240304015518 58 232 9.0 17.0 0.00 0.00 0.00 34 1006.3
20240304015204 58 207 9.0 17.0 0.00 0.00 0.00 34 1006.3
20240304014839 58 213 8.0 17.0 0.00 0.00 0.00 34 1006.3
20240304014523 59 198 8.0 16.0 0.00 0.00 0.00 34 1006.3
20240304014205 59 217 8.0 16.0 0.00 0.00 0.00 34 1006.3
20240304013841 59 224 8.0 17.0 0.00 0.00 0.00 34 1006.4
20240304013523 59 220 7.0 17.0 0.00 0.00 0.00 34 1006.3
20240304013208 59 223 7.0 17.0 0.00 0.00 0.00 34 1006.2
20240304012850 59 235 7.0 18.0 0.00 0.00 0.00 34 1006.3
20240304012532 59 186 8.0 18.0 0.00 0.00 0.00 34 1006.2
20240304012208 59 204 7.0 18.0 0.00 0.00 0.00 33 1006.2
20240304011848 60 205 8.0 18.0 0.00 0.00 0.00 33 1006.2
20240304011524 60 210 7.0 18.0 0.00 0.00 0.00 33 1006.1
20240304010605 60 227 9.0 18.0 0.00 0.00 0.00 33 1006.2
20240304010245 60 250 8.0 18.0 0.00 0.00 0.00 32 1006.1
20240304005925 60 185 8.0 18.0 0.00 0.00 0.00 32 1006.0
20240304005605 61 213 7.0 18.0 0.00 0.00 0.00 32 1006.1
20240304004946 61 207 6.0 15.0 0.00 0.00 0.00 31 1006.2
20240304004629 61 211 5.0 15.0 0.00 0.00 0.00 32 1006.2
20240304004003 61 208 5.0 23.0 0.00 0.00 0.00 32 1006.1
20240304003641 61 200 6.0 23.0 0.00 0.00 0.00 32 1006.1
20240304003317 61 272 8.0 23.0 0.00 0.00 0.00 31 1006.2
20240304003000 61 223 10.0 23.0 0.00 0.00 0.00 31 1006.0
20240304002646 61 247 11.0 23.0 0.00 0.00 0.00 31 1006.1
20240304002322 62 227 10.0 23.0 0.00 0.00 0.00 31 1005.9
20240304001700 62 265 8.0 17.0 0.00 0.00 0.00 30 1006.0
20240304001335 62 215 9.0 24.0 0.00 0.00 0.00 30 1006.0
20240304001014 62 157 9.0 24.0 0.00 0.00 0.00 30 1006.0
20240304000654 62 242 10.0 24.0 0.00 0.00 0.00 30 1006.0
20240304000033 62 219 7.0 24.0 0.00 0.00 0.00 30 1006.0
20240303235712 63 201 6.0 24.0 0.00 0.00 0.00 30 1006.3
20240303235350 63 184 7.0 15.0 0.00 0.00 0.00 29 1006.1
20240303235034 63 238 7.0 18.0 0.00 0.00 0.00 29 1006.1
20240303234709 63 170 7.0 18.0 0.00 0.00 0.00 28 1006.0
20240303234348 63 176 7.0 18.0 0.00 0.00 0.00 28 1006.0
20240303234028 63 175 8.0 22.0 0.00 0.00 0.00 28 1006.0
20240303233704 63 269 9.0 22.0 0.00 0.00 0.00 29 1006.0
20240303233348 63 279 9.0 22.0 0.00 0.00 0.00 28 1006.1
20240303233023 63 232 8.0 22.0 0.00 0.00 0.00 27 1006.1
20240303232658 63 202 8.0 22.0 0.00 0.00 0.00 28 1006.1
20240303232034 64 214 8.0 20.0 0.00 0.00 0.00 28 1006.0
20240303231716 64 189 8.0 20.0 0.00 0.00 0.00 28 1006.1
20240303231356 64 216 9.0 20.0 0.00 0.00 0.00 28 1006.1
20240303231041 64 182 9.0 19.0 0.00 0.00 0.00 28 1006.0
20240303230719 64 232 9.0 19.0 0.00 0.00 0.00 28 1006.0
20240303230056 64 158 7.0 23.0 0.00 0.00 0.00 28 1006.1
20240303225431 64 244 8.0 23.0 0.00 0.00 0.00 28 1006.3
20240303225114 64 227 9.0 23.0 0.00 0.00 0.00 28 1006.4
20240303224450 64 271 8.0 21.0 0.00 0.00 0.00 28 1006.2
20240303224131 64 179 8.0 21.0 0.00 0.00 0.00 28 1006.3
20240303223807 64 180 9.0 21.0 0.00 0.00 0.00 28 1006.3
20240303223448 64 188 8.0 21.0 0.00 0.00 0.00 28 1006.3
20240303223127 64 213 7.0 18.0 0.00 0.00 0.00 28 1006.4
20240303222503 65 224 7.0 18.0 0.00 0.00 0.00 27 1006.4
20240303222147 64 209 8.0 18.0 0.00 0.00 0.00 27 1006.4
20240303221822 65 282 8.0 18.0 0.00 0.00 0.00 27 1006.4
20240303221506 65 208 7.0 18.0 0.00 0.00 0.00 27 1006.5
20240303221149 65 230 5.0 17.0 0.00 0.00 0.00 27 1006.4
20240303220827 65 122 7.0 21.0 0.00 0.00 0.00 27 1006.3
20240303220508 65 173 8.0 21.0 0.00 0.00 0.00 26 1006.4
20240303220154 64 197 11.0 21.0 0.00 0.00 0.00 28 1006.4
20240303215837 64 174 11.0 22.0 0.00 0.00 0.00 28 1006.4
20240303214919 64 241 8.0 24.0 0.00 0.00 0.00 29 1006.5
20240303214257 65 212 5.0 24.0 0.00 0.00 0.00 29 1006.8
20240303213935 65 260 7.0 24.0 0.00 0.00 0.00 28 1006.7
20240303213619 65 309 9.0 24.0 0.00 0.00 0.00 30 1006.7
20240303213256 64 179 11.0 24.0 0.00 0.00 0.00 30 1006.7
20240303212930 64 252 9.0 21.0 0.00 0.00 0.00 31 1006.8
20240303212605 64 211 9.0 21.0 0.00 0.00 0.00 31 1006.7
20240303212240 64 196 9.0 21.0 0.00 0.00 0.00 31 1006.8
20240303211617 63 229 8.0 21.0 0.00 0.00 0.00 30 1006.9
20240303211301 64 168 8.0 21.0 0.00 0.00 0.00 30 1007.0
20240303210638 64 229 7.0 17.0 0.00 0.00 0.00 30 1006.8
20240303210316 64 202 7.0 17.0 0.00 0.00 0.00 31 1006.9
20240303210002 64 257 7.0 17.0 0.00 0.00 0.00 31 1006.9
20240303205644 63 153 9.0 20.0 0.00 0.00 0.00 31 1007.0
20240303205319 63 202 9.0 20.0 0.00 0.00 0.00 30 1007.2
20240303205003 63 225 9.0 20.0 0.00 0.00 0.00 31 1007.2
20240303204641 63 148 10.0 25.0 0.00 0.00 0.00 31 1007.4
20240303204325 63 271 9.0 25.0 0.00 0.00 0.00 31 1007.3
20240303203707 63 241 10.0 27.0 0.00 0.00 0.00 31 1007.3
20240303203351 63 247 11.0 27.0 0.00 0.00 0.00 32 1007.4
20240303203032 62 198 10.0 27.0 0.00 0.00 0.00 32 1007.6
20240303202712 62 204 9.0 27.0 0.00 0.00 0.00 32 1007.6
20240303202355 63 199 8.0 27.0 0.00 0.00 0.00 32 1007.7
20240303202040 62 188 9.0 27.0 0.00 0.00 0.00 33 1007.7
20240303201721 62 211 9.0 21.0 0.00 0.00 0.00 32 1007.7
20240303201105 62 197 7.0 17.0 0.00 0.00 0.00 33 1007.8
20240303200143 62 217 10.0 22.0 0.00 0.00 0.00 32 1008.0
20240303195827 62 273 11.0 22.0 0.00 0.00 0.00 34 1007.9
20240303195502 61 146 10.0 22.0 0.00 0.00 0.00 33 1008.0
20240303195137 62 221 8.0 22.0 0.00 0.00 0.00 31 1008.1
20240303194813 62 198 7.0 30.0 0.00 0.00 0.00 32 1008.1
20240303194456 61 204 9.0 30.0 0.00 0.00 0.00 32 1008.2
20240303194129 61 245 9.0 30.0 0.00 0.00 0.00 32 1008.2
20240303193807 61 250 11.0 30.0 0.00 0.00 0.00 32 1008.3
20240303193445 61 200 12.0 30.0 0.00 0.00 0.00 33 1008.2
20240303193123 61 243 14.0 30.0 0.00 0.00 0.00 32 1008.2
20240303192758 62 268 13.0 27.0 0.00 0.00 0.00 33 1008.4
20240303192443 61 254 12.0 27.0 0.00 0.00 0.00 33 1008.1
20240303192119 61 252 12.0 30.0 0.00 0.00 0.00 33 1008.1
20240303191801 61 266 12.0 30.0 0.00 0.00 0.00 33 1008.1
20240303191442 61 253 14.0 30.0 0.00 0.00 0.00 33 1008.1
20240303191118 61 235 14.0 31.0 0.00 0.00 0.00 33 1008.1
20240303190753 61 235 13.0 31.0 0.00 0.00 0.00 31 1008.2
20240303190133 61 248 12.0 31.0 0.00 0.00 0.00 33 1008.0
20240303185808 60 233 12.0 31.0 0.00 0.00 0.00 34 1008.1
20240303185450 60 242 13.0 31.0 0.00 0.00 0.00 35 1008.1
20240303184835 60 238 14.0 30.0 0.00 0.00 0.00 35 1008.0
20240303184517 60 273 14.0 30.0 0.00 0.00 0.00 34 1008.1
20240303184154 60 224 14.0 29.0 0.00 0.00 0.00 36 1008.1
20240303183839 59 269 16.0 32.0 0.00 0.00 0.00 36 1008.1
20240303183216 59 244 12.0 32.0 0.00 0.00 0.00 35 1007.9
20240303182856 59 248 11.0 32.0 0.00 0.00 0.00 36 1008.0
20240303182531 59 288 12.0 32.0 0.00 0.00 0.00 36 1008.1
20240303182210 58 250 14.0 32.0 0.00 0.00 0.00 35 1007.9
20240303181856 58 244 14.0 30.0 0.00 0.00 0.00 35 1007.9
20240303181536 58 288 14.0 30.0 0.00 0.00 0.00 36 1007.7
20240303180615 58 178 11.0 25.0 0.00 0.00 0.00 38 1008.4
20240303175959 58 310 7.0 25.0 0.00 0.00 0.00 38 1008.3
20240303175642 58 244 8.0 25.0 0.00 0.00 0.00 38 1008.2
20240303175022 57 211 12.0 25.0 0.00 0.00 0.00 38 1008.4
20240303174705 57 246 11.0 25.0 0.00 0.00 0.00 39 1008.5
20240303174349 57 205 11.0 25.0 0.00 0.00 0.00 39 1008.4
20240303173735 57 236 10.0 31.0 0.00 0.00 0.00 40 1008.5
20240303173420 57 262 11.0 31.0 0.00 0.00 0.00 40 1008.6
20240303173054 57 223 11.0 31.0 0.00 0.00 0.00 40 1008.5
20240303172735 57 255 13.0 31.0 0.00 0.00 0.00 40 1008.5
20240303172418 56 217 14.0 31.0 0.00 0.00 0.00 41 1008.5
20240303172055 56 249 13.0 31.0 0.00 0.00 0.00 41 1008.5
20240303171729 56 237 11.0 29.0 0.00 0.00 0.00 40 1008.3
20240303171405 56 188 10.0 29.0 0.00 0.00 0.00 40 1008.2
20240303170749 56 232 12.0 29.0 0.00 0.00 0.00 41 1008.3
20240303170430 56 223 12.0 29.0 0.00 0.00 0.00 42 1008.3
20240303165507 55 215 11.0 25.0 0.00 0.00 0.00 42 1008.1
20240303165142 55 273 11.0 25.0 0.00 0.00 0.00 42 1008.2
20240303164527 55 259 9.0 25.0 0.00 0.00 0.00 43 1008.3
20240303164201 55 269 10.0 21.0 0.00 0.00 0.00 43 1008.2
20240303163838 54 196 10.0 27.0 0.00 0.00 0.00 43 1008.1
20240303163521 54 259 10.0 27.0 0.00 0.00 0.00 43 1008.2
20240303162601 54 223 11.0 27.0 0.00 0.00 0.00 45 1008.3
20240303162242 54 242 11.0 27.0 0.00 0.00 0.00 45 1008.2
20240303161920 54 271 10.0 20.0 0.00 0.00 0.00 45 1008.3
20240303161558 53 232 9.0 20.0 0.00 0.00 0.00 45 1008.4
20240303161241 53 252 9.0 20.0 0.00 0.00 0.00 45 1008.3
20240303160621 53 173 7.0 19.0 0.00 0.00 0.00 46 1008.2
20240303160257 53 228 7.0 19.0 0.00 0.00 0.00 46 1008.3
20240303155933 53 255 7.0 18.0 0.00 0.00 0.00 47 1007.9
20240303155608 52 245 9.0 18.0 0.00 0.00 0.00 47 1008.0
20240303155254 52 217 9.0 18.0 0.00 0.00 0.00 47 1008.1
20240303154933 52 215 9.0 18.0 0.00 0.00 0.00 48 1008.1
20240303154013 52 169 9.0 18.0 0.00 0.00 0.00 48 1007.8
20240303153048 51 196 7.0 21.0 0.00 0.00 0.00 49 1007.7
20240303152733 51 217 7.0 21.0 0.00 0.00 0.00 50 1007.8
20240303152413 51 196 8.0 21.0 0.00 0.00 0.00 50 1007.8
20240303152058 51 189 8.0 21.0 0.00 0.00 0.00 49 1007.8
20240303151733 51 199 8.0 21.0 0.00 0.00 0.00 49 1007.7
20240303151416 51 140 8.0 19.0 0.00 0.00 0.00 49 1007.7
20240303151058 51 178 8.0 19.0 0.00 0.00 0.00 50 1007.6
20240303150742 51 198 8.0 19.0 0.00 0.00 0.00 50 1007.7
20240303150419 51 136 8.0 17.0 0.00 0.00 0.00 49 1007.6
20240303150058 50 214 7.0 19.0 0.00 0.00 0.00 50 1007.5
20240303145743 50 165 7.0 19.0 0.00 0.00 0.00 50 1007.4
20240303145421 50 211 7.0 19.0 0.00 0.00 0.00 51 1007.7
20240303145100 50 252 8.0 20.0 0.00 0.00 0.00 51 1007.5
20240303144737 50 180 9.0 20.0 0.00 0.00 0.00 51 1007.4
20240303144118 50 165 7.0 23.0 0.00 0.00 0.00 51 1007.3
20240303143752 50 209 9.0 23.0 0.00 0.00 0.00 50 1007.1
20240303143432 50 197 10.0 23.0 0.00 0.00 0.00 51 1007.1
20240303143116 50 163 12.0 23.0 0.00 0.00 0.00 51 1007.0
20240303142757 50 143 11.0 23.0 0.00 0.00 0.00 51 1006.9
20240303142133 50 169 11.0 23.0 0.00 0.00 0.00 51 1007.0
20240303141808 50 134 9.0 23.0 0.00 0.00 0.00 51 1007.0
20240303141453 49 160 10.0 23.0 0.00 0.00 0.00 51 1006.9
20240303141135 50 181 11.0 26.0 0.00 0.00 0.00 51 1006.9
20240303140818 50 187 11.0 26.0 0.00 0.00 0.00 51 1007.0
20240303140456 50 175 9.0 26.0 0.00 0.00 0.00 50 1007.0
20240303140137 50 209 8.0 26.0 0.00 0.00 0.00 50 1007.1
20240303135217 50 165 8.0 26.0 0.00 0.00 0.00 50 1006.9
20240303134902 50 133 9.0 20.0 0.00 0.00 0.00 49 1007.0
20240303134543 50 157 9.0 22.0 0.00 0.00 0.00 49 1007.0
20240303134219 50 206 8.0 22.0 0.00 0.00 0.00 49 1007.1
20240303133854 50 219 7.0 22.0 0.00 0.00 0.00 49 1007.0
20240303132926 50 206 7.0 22.0 0.00 0.00 0.00 48 1007.0
20240303132613 50 197 5.0 14.0 0.00 0.00 0.00 48 1007.0
20240303132255 50 213 5.0 16.0 0.00 0.00 0.00 49 1006.9
20240303131932 50 174 6.0 16.0 0.00 0.00 0.00 49 1006.9
20240303131609 50 152 8.0 16.0 0.00 0.00 0.00 48 1007.1
20240303131247 50 176 9.0 27.0 0.00 0.00 0.00 48 1006.8
20240303130932 50 130 9.0 27.0 0.00 0.00 0.00 49 1006.8
20240303130609 50 157 9.0 27.0 0.00 0.00 0.00 49 1006.7
20240303130246 50 137 8.0 27.0 0.00 0.00 0.00 48 1006.8
20240303125926 50 163 9.0 27.0 0.00 0.00 0.00 49 1006.7
20240303125601 50 154 8.0 27.0 0.00 0.00 0.00 48 1006.6
20240303125241 50 117 9.0 21.0 0.00 0.00 0.00 48 1006.6
20240303124614 51 150 7.0 21.0 0.00 0.00 0.00 46 1006.6
20240303124255 51 148 6.0 19.0 0.00 0.00 0.00 45 1006.7
20240303123936 51 154 6.0 19.0 0.00 0.00 0.00 45 1006.6
20240303123613 51 163 6.0 19.0 0.00 0.00 0.00 44 1006.5
20240303123252 51 215 5.0 19.0 0.00 0.00 0.00 45 1006.5
20240303122631 51 182 6.0 24.0 0.00 0.00 0.00 44 1006.7
20240303122010 51 255 10.0 24.0 0.00 0.00 0.00 44 1006.7
20240303121655 51 134 9.0 24.0 0.00 0.00 0.00 44 1006.4
20240303121332 51 248 9.0 27.0 0.00 0.00 0.00 44 1006.2
20240303121008 51 232 10.0 27.0 0.00 0.00 0.00 44 1006.2
20240303120645 51 182 13.0 27.0 0.00 0.00 0.00 44 1006.0
20240303120323 51 240 12.0 27.0 0.00 0.00 0.00 44 1005.9
20240303120000 51 252 12.0 27.0 0.00 0.00 0.00 44 1005.8
20240303115336 51 243 11.0 25.0 0.00 0.00 0.00 44 1005.6
20240303115014 51 224 12.0 31.0 0.00 0.00 0.00 43 1005.7
20240303114355 51 207 15.0 31.0 0.00 0.00 0.00 44 1005.6
20240303114031 51 194 16.0 36.0 0.00 0.00 0.00 43 1005.5
20240303113711 51 219 17.0 36.0 0.00 0.00 0.00 43 1005.4
20240303113346 51 232 17.0 36.0 0.00 0.00 0.00 43 1005.4
20240303112728 52 234 17.0 39.0 0.00 0.00 0.00 43 1005.3
20240303112412 52 243 18.0 39.0 0.00 0.00 0.00 42 1005.3
20240303112046 52 244 20.0 39.0 0.00 0.00 0.00 42 1005.3
20240303111727 52 221 18.0 39.0 0.00 0.00 0.00 42 1005.2
20240303110759 52 255 20.0 38.0 0.00 0.00 0.00 42 1005.3
20240303110433 52 238 22.0 38.0 0.00 0.00 0.00 42 1005.3
20240303110114 52 257 19.0 38.0 0.00 0.00 0.00 41 1005.4
20240303105753 52 251 20.0 38.0 0.00 0.00 0.00 41 1005.4
20240303105128 52 262 21.0 35.0 0.00 0.00 0.00 42 1005.5
20240303104513 51 261 20.0 35.0 0.00 0.00 0.00 42 1005.7
20240303104155 51 250 19.0 35.0 0.00 0.00 0.00 42 1005.6
20240303102941 51 250 20.0 35.0 0.00 0.00 0.00 42 1006.1
20240303102625 51 284 19.0 35.0 0.00 0.00 0.00 43 1006.2
20240303102010 51 259 16.0 34.0 0.00 0.00 0.00 43 1006.2
20240303101650 51 248 16.0 34.0 0.00 0.00 0.00 42 1006.5
20240303101332 51 245 16.0 35.0 0.00 0.00 0.00 42 1006.6
20240303101012 51 254 17.0 35.0 0.00 0.00 0.00 42 1006.6
20240303100655 51 253 18.0 35.0 0.00 0.00 0.00 42 1006.7
20240303100332 51 298 20.0 35.0 0.00 0.00 0.00 42 1006.7
20240303095709 51 281 21.0 35.0 0.00 0.00 0.00 42 1006.6
20240303095354 51 224 21.0 34.0 0.00 0.00 0.00 42 1006.5
20240303095030 51 257 20.0 34.0 0.00 0.00 0.00 42 1006.3
20240303094709 51 240 19.0 34.0 0.00 0.00 0.00 42 1006.3
20240303094347 51 288 18.0 34.0 0.00 0.00 0.00 42 1006.6
20240303094021 51 259 16.0 32.0 0.00 0.00 0.00 42 1006.8
20240303093403 51 300 16.0 32.0 0.00 0.00 0.00 41 1007.0